Hourly Data Report for July 28, 2004

SHERBROOKE A
QUEBEC

45°26'00.000" N
71°41'00.000" W
241.40 m
7028124
71610
YSC

Download Data

Hourly Data (July 2004)
Hourly Data Report for July 28, 2004
TIME
LST
Temp Definition
°C
Dew Point Definition
°C
Rel Hum Definition
%
Precip. Amount Definition
mm

Wind Dir Definition
10's deg

Wind Spd Definition
km/h
Visibility Definition
km
Stn Press Definition
kPa
Hmdx Definition


Wind Chill Definition


Weather Definition


00:00 16.2 14.5 90   25 7 15.0 98.96      
01:00 15.8 13.3 85     0 15.0 98.88      
02:00 14.8 13.3 91     0 15.0 98.87      
03:00 14.7 13.4 92     0 15.0 98.84      
04:00 14.2 13.0 92     0 15.0 98.85      
05:00 14.6 13.3 92   10 6 15.0 98.83      
06:00 15.3 13.5 89   10 7 15.0 98.81      
07:00 16.3 13.4 83   14 4 24.1 98.82     Mostly Cloudy
08:00 17.3 13.3 77   22 6 24.1 98.84     Mostly Cloudy
09:00 18.2 13.7 75   19 4 24.1 98.78     Mostly Cloudy
10:00 19.3 14.3 73   27 7 24.1 98.80     Mostly Cloudy
11:00 20.7 14.8 69     0 24.1 98.73 25   Mostly Cloudy
12:00 20.5 15.6 73   28 7 24.1 98.70 25   Mostly Cloudy
13:00 21.5 14.5 64   31 4 24.1 98.63 25   Mostly Cloudy
14:00 21.9 14.8 64     0 24.1 98.64 26   Mostly Cloudy
15:00 20.9 15.4 71   24 6 24.1 98.64 25   Cloudy
16:00 20.9 16.0 74   24 7 24.1 98.62 26   Cloudy
17:00 20.4 16.3 77   24 7 15.0 98.62 25    
18:00 19.9 16.5 81   25 9 15.0 98.66      
19:00 19.3 15.9 81   23 7 15.0 98.69      
20:00 18.5 16.3 87   29 11 15.0 98.73      
21:00 18.2 16.3 89     0 15.0 98.73      
22:00 17.7 16.3 92   27 4 15.0 98.70      
23:00 17.7 16.4 92     0 15.0 98.69      

Notes on Data Quality.

Legend

  • E = Estimated
  • M = Missing
  • NA = Not Available*
  • [empty] = Indicates an unobserved value
Date modified: